Location: Acton
(51.4942°N, 0.2232°W)
Time: 13:44:28
(UTC+00:00)

Okean 1-7 Rocket - Pass Details

Date: 23 January 2021
Orbit: 615 x 650 km, 82.5° (Epoch: 28 February)

Event Time Altitude Azimuth Distance (km) Brightness Sun altitude
Exits shadow 06:09:03 22° 249° (WSW) 1,420 4.9 -15.6°
Drops below altitude 10° 06:11:27 10° 220° (SW) 2,025 5.9 -15.2°
Sets 06:13:59 0° 206° (SSW) 2,922 6.9 -14.9°
